Location: ??
(35.3149°N, 139.6204°E)
Time: 11:56:28
(UTC+00:00)

ADEOS II - Pass Details

Date: 03 August 2024
Orbit: 795 x 798 km, 98.7° (Epoch: 07 September)

Event Time Altitude Azimuth Distance (km) Brightness Sun altitude
Rises 16:37:57 0° 18° (NNE) 3,307 6.4 -31.3°
Reaches altitude 10° 16:40:21 10° 23° (NNE) 2,373 5.4 -31.0°
Enters shadow 16:44:59 52° 79° (E) 989 2.7 -30.5°
